[[{"header":{"parameterUnit":"m.s-1","parameterCategory":2,"la1":30.2991,"la2":30.254,"lo1":-89.0895,"lo2":-89.0444,"dy":0.0017,"dx":0.0017,"nx":28,"ny":28,"refTime":"2024-02-20T09:00:00:Z","depth":"0","parameterNumber":2,"parameterNumberName":"U-component_of_CURRENTS"},"data":[0,0,0,0,0,0,0,0,0,0,0,0,0,0,0,0,0,0,0,0,0,0,0,0,0,0,0,0,0,0,0,0,0,0,0,0,0,0,0,0,0,0,0,0,0,0,0,0,0,0,0,0,0,0,0,0,0,0,0.3879,0.388,0,0.3909,0.3908,0.3907,0.3894,0.3894,0.3895,0.3896,0.3762,0.3758,0.3754,0,0,0,0,0,0,0,0,0,0,0,0,0,0.3755,0.3756,0.3879,0.388,0.3882,0.3909,0.3908,0.3907,0.3894,0.3894,0.3895,0.3896,0.3763,0.3758,0.3754,0,0,0,0,0,0,0,0,0,0,0,0,0,0.3786,0.3756,0.3878,0.3889,0.3891,0.3909,0.3908,0.3907,0.3894,0.3894,0.3895,0.3896,0.3765,0.3759,0.3753,0.3699,0,0,0.3734,0.3732,0,0,0,0,0,0,0,0,0.3784,0.3788,0.3886,0.3889,0.3891,0.3911,0.3817,0.3834,0.3893,0.3878,0.3896,0.3896,0.3805,0.3796,0.3782,0.3693,0.3687,0.3734,0.373,0.3727,0.3726,0,0,0,0,0,0,0,0.3782,0.3787,0.3876,0.3888,0.3891,0.3875,0.3879,0.3819,0.3822,0.3879,0.3882,0.3907,0.3804,0.3788,0.3778,0.3685,0.3734,0.3729,0.3725,0.3722,0.3664,0.3666,0,0,0,0,0,0,0.3809,0.3785,0.3876,0.3879,0.3855,0.3878,0.3882,0.3892,0.3827,0.3823,0.3907,0.3907,0.3798,0.3786,0.3774,0.3838,0.3727,0.3722,0.3718,0.3662,0.3665,0.3667,0,0,0,0,0,0,0.3806,0.3816,0.3875,0.3845,0.3853,0.3881,0.3892,0.3893,0.3881,0.3852,0.3842,0.3897,0.3798,0.3782,0.3736,0.3828,0.3719,0.3713,0.366,0.3663,0.3666,0.3882,0,0,0,0,0,0,0.3801,0.3814,0.3802,0.3846,0.3856,0.3889,0.3892,0.3893,0.3903,0.3903,0.384,0.3829,0.3797,0.3745,0.373,0.3818,0.3709,0.3657,0.3661,0.3665,0.3872,0.3892,0.3909,0,0,0,0,0,0.3796,0.3794,0.38,0.3811,0.3848,0.3891,0.3891,0.3905,0.3902,0.3894,0.3863,0.3831,0.3762,0.374,0.3722,0.3811,0.3655,0.366,0.3665,0.3864,0.3888,0.3909,0,0,0,0,0,0,0.3743,0.3795,0.3802,0.3817,0.3853,0.3894,0.3902,0.3902,0.3871,0.3874,0.3823,0.3809,0.3814,0.3759,0.3738,0.3805,0.3716,0.3717,0.3874,0.3896,0.3914,0.3912,0.3704,0,0,0,0,0,0.3726,0.373,0.3789,0.38,0.383,0.3859,0.387,0.3888,0.389,0.3877,0.3841,0.3816,0.3817,0.3811,0.3776,0.3784,0.3738,0.3837,0.3856,0.3873,0.3858,0.3846,0.3863,0.3683,0.3683,0.3683,0,0,0.3713,0.3743,0.3745,0.3787,0.3823,0.3886,0.3864,0.3907,0.3968,0.3864,0.3898,0.3855,0.3825,0.3862,0.3863,0.3831,0.3913,0.3879,0.3894,0.3869,0.3853,0.387,0.3886,0.3686,0.3685,0.3685,0,0,0.3718,0.3723,0.3742,0.3788,0.3856,0.3889,0.3905,0.3948,0.3976,0.4005,0.397,0.3965,0.3949,0.396,0.3968,0.405,0.3997,0.4061,0.4172,0.4163,0.4178,0.419,0.4218,0.4231,0.409,0.409,0.409,0,0.3697,0.3737,0.3754,0.3815,0.3866,0.3902,0.3964,0.4017,0.4034,0.4047,0.4048,0.4033,0.4015,0.4068,0.4134,0.4098,0.4082,0.4102,0.419,0.42,0.4209,0.4234,0.4245,0.4101,0.41,0.4099,0.4098,0,0.3736,0.3781,0.3814,0.3901,0.3948,0.4008,0.4109,0.4141,0.4182,0.4215,0.4251,0.4227,0.4204,0.425,0.4237,0.4303,0.4273,0.4205,0.4141,0.4241,0.4261,0.4269,0.4117,0.4113,0.411,0.4107,0,0,0.3641,0.3804,0.3808,0.387,0.3999,0.4036,0.4168,0.4254,0.4302,0.4357,0.4398,0.4466,0.4409,0.4408,0.4383,0.4421,0.4524,0.4367,0.4361,0.4408,0.4537,0.4381,0.4374,0.4474,0.4475,0.4476,0.4551,0,0.3661,0.3776,0.3853,0.397,0.4047,0.4139,0.4241,0.4327,0.4394,0.4437,0.4478,0.4496,0.4493,0.448,0.4523,0.448,0.4543,0.4511,0.4417,0.4415,0.4274,0.4376,0.4087,0.4114,0.4557,0.4559,0.4559,0,0.3653,0.3738,0.3851,0.4006,0.4043,0.4112,0.4226,0.4325,0.4432,0.4478,0.4515,0.4519,0.4579,0.4556,0.459,0.4567,0.4578,0.4578,0.4579,0.4345,0.427,0.4069,0.411,0.401,0.457,0.4569,0.4568,0,0.355,0.3719,0.3797,0.3858,0.4045,0.4093,0.4177,0.4302,0.4374,0.4473,0.4501,0.4555,0.4566,0.4587,0.4606,0.4601,0.4635,0.4606,0.4495,0.4486,0.417,0.4129,0.4095,0.4651,0.4651,0.4651,0.4651,0,0.3528,0.3595,0.3746,0.3798,0.3873,0.4017,0.4088,0.419,0.4304,0.4369,0.4474,0.4514,0.4575,0.4605,0.462,0.4567,0.4638,0.4522,0.4485,0.4243,0.4209,0.4043,0.4027,0.4654,0.4653,0.4653,0.4652,0,0.3442,0.3541,0.364,0.3799,0.3836,0.3884,0.4039,0.4103,0.4214,0.4298,0.4332,0.4483,0.4524,0.4572,0.461,0.4554,0.4385,0.4509,0.4242,0.417,0.3926,0.3931,0.3721,0.3629,0.439,0.4387,0.4384,0,0.3438,0.3475,0.3598,0.3644,0.372,0.3808,0.3882,0.403,0.4101,0.427,0.43,0.44,0.4446,0.4441,0.4355,0.4323,0.4269,0.4047,0.397,0.3877,0.3859,0.3782,0.3717,0.3685,0.3676,0.3669,0.3664,0,0.3448,0.3459,0.3531,0.3597,0.3662,0.3735,0.3841,0.3879,0.4051,0.4108,0.4195,0.4245,0.4242,0.4062,0.401,0.3959,0.3797,0.3902,0.3851,0.3337,0.3199,0.3101,0.3729,0.3602,0.3608,0.3612,0.3616,0.3618,0.3444,0.3459,0.352,0.3572,0.363,0.367,0.3676,0.3762,0.382,0.3843,0.4004,0.3938,0.3787,0.3656,0.3596,0.3264,0.3405,0.3115,0.3153,0.3104,0.2911,0.3423,0.321,0.3214,0.3217,0.322,0.3223,0,0.345,0.3468,0.3517,0.3548,0.3554,0.3601,0.3656,0.3601,0.3578,0.3592,0.359,0.3348,0.3135,0.3003,0.2676,0.2528,0.2453,0.2457,0.2292,0.229,0.2759,0.2621,0.221,0.221,0.221,0.221,0.2211,0.2211,0.346,0.3477,0.3474,0.3465,0.3469,0.3388,0.3375,0.328,0.3235,0.2996,0.2795,0.2741,0.2604,0.2343,0.2073,0.2011,0.1931,0.1756,0.1923,0.2259,0.2324,0.2386,0.2252,0.1771,0.177,0.1277,0.1273,0.127]},{"header":{"parameterUnit":"m.s-1","parameterCategory":2,"la1":30.2991,"la2":30.254,"lo1":-89.0895,"lo2":-89.0444,"dy":0.0017,"dx":0.0017,"nx":28,"ny":28,"refTime":"2024-02-20T09:00:00:Z","depth":"0","parameterNumber":3,"parameterNumberName":"V-component_of_CURRENTS"},"data":[0,0,0,0,0,0,0,0,0,0,0,0,0,0,0,0,0,0,0,0,0,0,0,0,0,0,0,0,0,0,0,0,0,0,0,0,0,0,0,0,0,0,0,0,0,0,0,0,0,0,0,0,0,0,0,0,0,0,-0.0419,-0.0419,0,-0.045,-0.045,-0.045,-0.0483,-0.0483,-0.0484,-0.0485,-0.0482,-0.0482,-0.0481,0,0,0,0,0,0,0,0,0,0,0,0,0,-0.0331,-0.0332,-0.0419,-0.0419,-0.042,-0.045,-0.045,-0.045,-0.0482,-0.0483,-0.0484,-0.0485,-0.0483,-0.0482,-0.0481,0,0,0,0,0,0,0,0,0,0,0,0,0,-0.0363,-0.0333,-0.0419,-0.0443,-0.0445,-0.045,-0.045,-0.045,-0.0482,-0.0483,-0.0485,-0.0486,-0.0483,-0.0482,-0.0481,-0.045,0,0,-0.0477,-0.0476,0,0,0,0,0,0,0,0,-0.0361,-0.0366,-0.0438,-0.0441,-0.0444,-0.0466,-0.0418,-0.0449,-0.0482,-0.0465,-0.0485,-0.0486,-0.0475,-0.0475,-0.0474,-0.045,-0.045,-0.0477,-0.0476,-0.0476,-0.0475,0,0,0,0,0,0,0,-0.0359,-0.0364,-0.0427,-0.0439,-0.0443,-0.0432,-0.0438,-0.0424,-0.046,-0.0466,-0.047,-0.0478,-0.0476,-0.0475,-0.0474,-0.045,-0.0477,-0.0476,-0.0475,-0.0475,-0.0462,-0.0462,0,0,0,0,0,0,-0.0364,-0.0362,-0.0427,-0.0429,-0.0408,-0.0433,-0.044,-0.0455,-0.0461,-0.0464,-0.0477,-0.0479,-0.0476,-0.0475,-0.0474,-0.049,-0.0476,-0.0474,-0.0474,-0.0462,-0.0462,-0.0462,0,0,0,0,0,0,-0.0362,-0.0369,-0.0425,-0.0398,-0.0405,-0.0434,-0.0451,-0.0455,-0.0454,-0.047,-0.0472,-0.0472,-0.0477,-0.0475,-0.0473,-0.0488,-0.0474,-0.0473,-0.0461,-0.0462,-0.0462,-0.0488,0,0,0,0,0,0,-0.0359,-0.0369,-0.0365,-0.0399,-0.0407,-0.0421,-0.045,-0.0455,-0.046,-0.0463,-0.0466,-0.0467,-0.0478,-0.0475,-0.0472,-0.0486,-0.0472,-0.0461,-0.0461,-0.0462,-0.0486,-0.0489,-0.0491,0,0,0,0,0,-0.0356,-0.0354,-0.0365,-0.0372,-0.0407,-0.042,-0.0422,-0.0444,-0.0458,-0.0449,-0.0466,-0.0467,-0.0478,-0.0473,-0.047,-0.0484,-0.046,-0.0461,-0.0462,-0.0485,-0.0489,-0.0491,0,0,0,0,0,0,-0.0321,-0.0358,-0.0371,-0.0383,-0.0396,-0.0427,-0.0424,-0.0436,-0.0441,-0.0448,-0.0462,-0.0463,-0.047,-0.0466,-0.0461,-0.0484,-0.0472,-0.0473,-0.0491,-0.0494,-0.0497,-0.047,-0.0471,0,0,0,0,0,-0.031,-0.0314,-0.0349,-0.0355,-0.0365,-0.039,-0.0394,-0.041,-0.0428,-0.0431,-0.0441,-0.0454,-0.0469,-0.0473,-0.0476,-0.0475,-0.0433,-0.0485,-0.0487,-0.049,-0.0466,-0.0406,-0.04,-0.0465,-0.0465,-0.0465,0,0,-0.0301,-0.0318,-0.0323,-0.0345,-0.0362,-0.0375,-0.0395,-0.0404,-0.0416,-0.0428,-0.044,-0.0454,-0.0469,-0.0484,-0.0487,-0.0484,-0.0455,-0.0491,-0.0493,-0.0467,-0.0406,-0.04,-0.0394,-0.0466,-0.0466,-0.0466,0,0,-0.028,-0.03,-0.0295,-0.0309,-0.033,-0.0351,-0.0352,-0.0382,-0.0396,-0.0409,-0.0432,-0.0445,-0.0463,-0.0479,-0.0491,-0.0498,-0.0467,-0.0514,-0.0507,-0.0451,-0.0444,-0.0438,-0.0396,-0.0385,-0.052,-0.052,-0.052,0,-0.0261,-0.0268,-0.0293,-0.0296,-0.0306,-0.0342,-0.0344,-0.0366,-0.0389,-0.039,-0.0416,-0.0436,-0.046,-0.0467,-0.0497,-0.0502,-0.0466,-0.0499,-0.0452,-0.0444,-0.0437,-0.0395,-0.0383,-0.0521,-0.0521,-0.0521,-0.0521,0,-0.024,-0.0248,-0.025,-0.027,-0.0281,-0.0287,-0.0331,-0.0336,-0.0365,-0.0387,-0.0395,-0.0425,-0.0426,-0.0462,-0.0494,-0.0469,-0.0459,-0.0458,-0.044,-0.0432,-0.0389,-0.0376,-0.0523,-0.0523,-0.0522,-0.0522,0,0,-0.0184,-0.0224,-0.022,-0.0225,-0.0267,-0.027,-0.0296,-0.0313,-0.0306,-0.0349,-0.0328,-0.0398,-0.0398,-0.041,-0.0439,-0.0425,-0.038,-0.0432,-0.0428,-0.0382,-0.0257,-0.0236,-0.022,-0.0368,-0.0366,-0.0364,-0.0253,0,-0.0152,-0.0147,-0.0179,-0.018,-0.0188,-0.0229,-0.024,-0.0263,-0.0287,-0.0277,-0.0316,-0.0313,-0.0385,-0.0378,-0.0376,-0.0358,-0.0344,-0.041,-0.0277,-0.0273,-0.0248,-0.0203,-0.0188,-0.0086,-0.024,-0.0238,-0.0237,0,-0.011,-0.0113,-0.0106,-0.013,-0.0134,-0.0137,-0.0138,-0.0152,-0.0167,-0.0178,-0.0184,-0.0208,-0.02,-0.0258,-0.0209,-0.0245,-0.0253,-0.0256,-0.0251,-0.0204,-0.0226,-0.0115,-0.0056,-0.0157,-0.0216,-0.0218,-0.0219,0,-0.0043,-0.0058,-0.0045,-0.0056,-0.0091,-0.008,-0.009,-0.011,-0.0096,-0.0093,-0.0061,-0.0073,-0.0035,-0.0045,-0.0073,-0.0127,-0.0003,-0.0066,-0.0057,-0.0057,0.0,0.0003,-0.0008,-0.0025,-0.0025,-0.0025,-0.0025,0,0.0003,0.0011,-0.0006,-0.0003,0.0035,-0.0013,0.0031,0.0017,0.0032,0.0088,0.0015,0.0087,0.0023,0.0063,0.0006,0.0045,0.0076,-0.0025,-0.0011,-0.0013,-0.0013,-0.0064,-0.0136,-0.0021,-0.0022,-0.0023,-0.0023,0,0.0054,0.004,0.0058,0.0052,0.0062,0.0091,0.0114,0.0151,0.0152,0.0238,0.0252,0.0253,0.0324,0.0261,0.0276,0.0185,0.0154,0.0183,0.0175,0.0185,0.0065,-0.0009,0.0051,0.0017,0.0213,0.0215,0.0216,0,0.0072,0.0087,0.0117,0.0155,0.0156,0.0195,0.0231,0.0221,0.0275,0.0361,0.0431,0.0495,0.0589,0.0608,0.0476,0.0421,0.0276,0.0331,0.0216,0.0092,0.002,-0.0036,-0.0074,0.0271,0.0273,0.0274,0.0275,0,0.0107,0.0128,0.0154,0.0235,0.0287,0.0342,0.04,0.0461,0.049,0.0592,0.0754,0.0839,0.0842,0.0809,0.0674,0.0589,0.0266,0.0353,0.0244,0.0093,0.0019,-0.0017,0.0144,0.0286,0.0285,0.0285,0.0284,0.0283,0.015,0.0194,0.0248,0.0322,0.0389,0.0488,0.0561,0.066,0.0793,0.0976,0.1024,0.1217,0.105,0.0897,0.0742,0.0414,0.0397,0.028,0.0211,0.0174,0.0112,0.0292,0.0431,0.0431,0.043,0.043,0.043,0,0.0214,0.0259,0.0331,0.043,0.0517,0.0536,0.0673,0.0774,0.098,0.1198,0.1379,0.1437,0.1242,0.0955,0.0506,0.0283,0.0176,0.016,0.0063,0.0036,0.0227,0.0195,0.0267,0.0267,0.0268,0.0268,0.0268,0.0268,0.0258,0.0337,0.0371,0.0519,0.0593,0.0725,0.0816,0.1002,0.1183,0.1478,0.164,0.1729,0.1488,0.0728,0.0215,0.0089,-0.0092,-0.0084,-0.017,-0.0091,-0.0086,-0.0083,-0.013,-0.0127,-0.0128,-0.0336,-0.0338,-0.034]}],[{"header":{"parameterUnit":"m.s-1","parameterCategory":2,"la1":30.2991,"la2":30.254,"lo1":-89.0895,"lo2":-89.0444,"dy":0.0017,"dx":0.0017,"nx":28,"ny":28,"refTime":"2024-02-20T09:00:00:Z","depth":"2","parameterNumber":2,"parameterNumberName":"U-component_of_CURRENTS"},"data":[0,0,0,0,0,0,0,0,0,0,0,0,0,0,0,0,0,0,0,0,0,0,0,0,0,0,0,0,0,0,0,0,0,0,0,0,0,0,0,0,0,0,0,0,0,0,0,0,0,0,0,0,0,0,0,0,0,0,0.2062,0.2062,0,0.206,0.206,0.2061,0.2077,0.2077,0.2077,0.2077,0.2117,0.2118,0.2119,0,0,0,0,0,0,0,0,0,0,0,0,0,0.2085,0.2085,0.2062,0.2062,0.2061,0.206,0.206,0.2061,0.2077,0.2077,0.2077,0.2077,0.2117,0.2118,0.2119,0,0,0,0,0,0,0,0,0,0,0,0,0,0.2083,0.2085,0.2062,0.2066,0.2065,0.206,0.206,0.2061,0.2077,0.2077,0.2077,0.2077,0.2116,0.2118,0.2119,0.2128,0,0,0.2124,0.2125,0,0,0,0,0,0,0,0,0.2083,0.2083,0.2065,0.2065,0.2065,0.2065,0.2083,0.2084,0.2077,0.2077,0.2077,0.2077,0.21,0.2103,0.2109,0.213,0.2132,0.2124,0.2125,0.2126,0.2126,0,0,0,0,0,0,0,0.2083,0.2083,0.2066,0.2065,0.2065,0.2069,0.2069,0.2083,0.2093,0.2077,0.2077,0.207,0.2101,0.2107,0.211,0.2132,0.2124,0.2125,0.2126,0.2127,0.2224,0.2226,0,0,0,0,0,0,0.2074,0.2083,0.2066,0.2065,0.2069,0.2068,0.2068,0.2068,0.2092,0.2094,0.207,0.207,0.2104,0.2108,0.2111,0.217,0.2126,0.2127,0.2128,0.2223,0.2225,0.2227,0,0,0,0,0,0,0.2074,0.2073,0.2066,0.207,0.2069,0.2067,0.2067,0.2068,0.2097,0.2085,0.2089,0.2099,0.2105,0.2109,0.2147,0.217,0.2128,0.2129,0.2221,0.2223,0.2226,0.2258,0,0,0,0,0,0,0.2075,0.2073,0.2073,0.207,0.2068,0.2085,0.2067,0.2068,0.2089,0.209,0.2111,0.2113,0.2105,0.2144,0.2148,0.2171,0.2131,0.2219,0.2222,0.2225,0.2254,0.2261,0.2266,0,0,0,0,0,0.2076,0.2073,0.2074,0.2071,0.2068,0.2085,0.2087,0.2088,0.209,0.2114,0.2125,0.2114,0.2167,0.2147,0.2151,0.2175,0.2217,0.2221,0.2225,0.2252,0.226,0.2266,0,0,0,0,0,0,0.2076,0.2073,0.2075,0.2069,0.2087,0.2087,0.2099,0.2105,0.2133,0.2135,0.2134,0.2138,0.2183,0.2179,0.2158,0.2215,0.2191,0.2196,0.221,0.2218,0.2223,0.226,0.2132,0,0,0,0,0,0.2076,0.2092,0.2084,0.2094,0.2098,0.2108,0.2115,0.2119,0.2134,0.2147,0.2155,0.2171,0.2198,0.2208,0.2228,0.2256,0.2279,0.2276,0.2282,0.2287,0.2321,0.2375,0.2389,0.2239,0.2239,0.2239,0,0,0.2077,0.2084,0.2088,0.2098,0.2112,0.2114,0.2116,0.2136,0.2143,0.2147,0.2171,0.2198,0.2214,0.2247,0.2266,0.2247,0.2338,0.2292,0.2295,0.2328,0.238,0.2395,0.2408,0.2241,0.2241,0.224,0,0,0.208,0.2099,0.2098,0.2113,0.2128,0.214,0.2153,0.2162,0.2175,0.2202,0.2211,0.2258,0.228,0.2301,0.2313,0.2368,0.2375,0.2373,0.2423,0.2474,0.2487,0.2498,0.2528,0.2542,0.2366,0.2366,0.2366,0,0.2075,0.2086,0.2105,0.2105,0.2118,0.2154,0.2154,0.2172,0.2194,0.2223,0.2215,0.2307,0.2307,0.2376,0.2392,0.2382,0.2412,0.2388,0.2482,0.2494,0.2505,0.2533,0.2548,0.2368,0.2368,0.2368,0.2368,0,0.2076,0.2082,0.2094,0.2111,0.2122,0.2153,0.216,0.2181,0.2209,0.2247,0.2333,0.2358,0.242,0.2423,0.2423,0.2513,0.2508,0.2487,0.2461,0.2522,0.2547,0.2562,0.2371,0.2371,0.237,0.2369,0,0,0.2077,0.209,0.2096,0.2094,0.2138,0.214,0.2162,0.2212,0.2252,0.2307,0.2381,0.2444,0.2505,0.2527,0.2545,0.2592,0.2675,0.2583,0.2584,0.2608,0.2791,0.2665,0.2669,0.2676,0.268,0.2682,0.2767,0,0.2085,0.2082,0.2092,0.21,0.21,0.2132,0.2162,0.2206,0.2266,0.2345,0.2433,0.2523,0.253,0.2576,0.2632,0.2673,0.2722,0.2654,0.2733,0.2736,0.2613,0.2685,0.2434,0.248,0.2782,0.2785,0.2787,0,0.2076,0.2086,0.2081,0.2098,0.2103,0.2123,0.2185,0.2209,0.2332,0.2384,0.2508,0.2593,0.271,0.269,0.2821,0.2784,0.2806,0.2828,0.2831,0.2723,0.264,0.2473,0.2496,0.2812,0.281,0.2808,0.2807,0,0.2066,0.2071,0.2074,0.2082,0.2107,0.2123,0.2162,0.225,0.2303,0.2438,0.2515,0.2668,0.2752,0.283,0.2881,0.2869,0.3002,0.2971,0.2885,0.2875,0.2683,0.265,0.3069,0.3069,0.3069,0.3069,0.3069,0,0.2068,0.2065,0.2074,0.2082,0.2112,0.2122,0.2187,0.2236,0.2359,0.2445,0.2562,0.2656,0.2798,0.2888,0.2921,0.2948,0.303,0.2927,0.2903,0.2682,0.265,0.2955,0.2941,0.3072,0.3071,0.3071,0.307,0,0.2025,0.2044,0.204,0.208,0.2101,0.2117,0.2209,0.2266,0.2364,0.2471,0.253,0.2696,0.2798,0.2898,0.3008,0.2977,0.3014,0.2994,0.2716,0.2657,0.2849,0.2836,0.2934,0.2931,0.2928,0.2926,0.2924,0,0.1986,0.1983,0.2029,0.2051,0.2078,0.2117,0.2173,0.2274,0.2326,0.2474,0.253,0.2688,0.2737,0.2846,0.2847,0.2876,0.297,0.2643,0.2569,0.2876,0.2843,0.2834,0.2825,0.2326,0.2319,0.2314,0.231,0,0.1927,0.1958,0.1982,0.2026,0.2081,0.2098,0.2173,0.2216,0.231,0.2377,0.2447,0.2502,0.2611,0.2527,0.2566,0.2551,0.2617,0.2529,0.2946,0.2384,0.2305,0.2271,0.2282,0.226,0.2265,0.2269,0.2271,0.2273,0.1897,0.1908,0.1958,0.1989,0.2036,0.204,0.2034,0.209,0.212,0.216,0.2279,0.2259,0.2301,0.2238,0.2175,0.2151,0.235,0.2239,0.2256,0.2279,0.2178,0.2096,0.1994,0.1997,0.2,0.2003,0.2005,0,0.1842,0.1888,0.1913,0.1934,0.1925,0.1991,0.1998,0.1939,0.1899,0.1969,0.1979,0.1809,0.1743,0.1816,0.1687,0.1673,0.166,0.1613,0.1577,0.1627,0.1671,0.1539,0.1186,0.1183,0.1181,0.1179,0,0,0.1829,0.1833,0.184,0.1798,0.1825,0.1773,0.1752,0.1672,0.1646,0.1563,0.1545,0.1675,0.1733,0.144,0.1394,0.1266,0.1438,0.1211,0.1866,0.1873,0.1914,0.2029,0.188,0,0,0,0,0]},{"header":{"parameterUnit":"m.s-1","parameterCategory":2,"la1":30.2991,"la2":30.254,"lo1":-89.0895,"lo2":-89.0444,"dy":0.0017,"dx":0.0017,"nx":28,"ny":28,"refTime":"2024-02-20T09:00:00:Z","depth":"2","parameterNumber":3,"parameterNumberName":"V-component_of_CURRENTS"},"data":[0,0,0,0,0,0,0,0,0,0,0,0,0,0,0,0,0,0,0,0,0,0,0,0,0,0,0,0,0,0,0,0,0,0,0,0,0,0,0,0,0,0,0,0,0,0,0,0,0,0,0,0,0,0,0,0,0,0,0.0136,0.0136,0,0.0112,0.0111,0.0111,0.0075,0.0075,0.0074,0.0074,0.0019,0.0018,0.0017,0,0,0,0,0,0,0,0,0,0,0,0,0,0.0118,0.0119,0.0136,0.0136,0.0136,0.0112,0.0111,0.011,0.0075,0.0074,0.0074,0.0074,0.002,0.0018,0.0017,0,0,0,0,0,0,0,0,0,0,0,0,0,0.0111,0.0119,0.0136,0.0117,0.0115,0.0112,0.0111,0.011,0.0075,0.0074,0.0074,0.0073,0.002,0.0018,0.0017,0.0018,0,0,0.0012,0.0011,0,0,0,0,0,0,0,0,0.0111,0.0111,0.012,0.0119,0.0117,0.0098,0.0085,0.0079,0.0075,0.0087,0.0074,0.0073,0.0045,0.0041,0.0034,0.0015,0.0013,0.0012,0.0011,0.001,0.0009,0,0,0,0,0,0,0,0.0112,0.0112,0.0123,0.012,0.0118,0.0099,0.0097,0.0083,0.0067,0.0086,0.0084,0.0086,0.0043,0.0036,0.0033,0.0012,0.0012,0.001,0.0009,0.0008,-0.0024,-0.0024,0,0,0,0,0,0,0.0123,0.0112,0.0124,0.0123,0.0116,0.01,0.0098,0.0102,0.0068,0.0063,0.0087,0.0085,0.0039,0.0035,0.0031,0.0033,0.001,0.0008,0.0007,-0.0024,-0.0024,-0.0023,0,0,0,0,0,0,0.0123,0.0124,0.0125,0.0119,0.0118,0.0101,0.0106,0.0102,0.0093,0.0069,0.0063,0.0082,0.0039,0.0033,0.0013,0.003,0.0008,0.0006,-0.0024,-0.0024,-0.0024,0.0035,0,0,0,0,0,0,0.0122,0.0124,0.0128,0.012,0.0119,0.0128,0.0107,0.0102,0.0097,0.0094,0.0063,0.0058,0.0038,0.0015,0.0011,0.0027,0.0005,-0.0024,-0.0024,-0.0024,0.0032,0.0037,0.004,0,0,0,0,0,0.0122,0.0136,0.0129,0.013,0.0126,0.0129,0.0127,0.011,0.0097,0.0099,0.007,0.0058,0.0014,0.0014,0.0009,0.0025,-0.0024,-0.0024,-0.0024,0.0031,0.0036,0.004,0,0,0,0,0,0,0.0133,0.0134,0.0125,0.0139,0.0136,0.0124,0.0127,0.0114,0.0093,0.0089,0.0057,0.005,0.0039,0.0021,0.0021,0.0015,-0.0006,-0.0006,0.0037,0.0042,0.0046,0.0069,0.0003,0,0,0,0,0,0.0138,0.0144,0.0142,0.0151,0.0154,0.014,0.0137,0.0129,0.0113,0.0103,0.0079,0.0055,0.0038,0.003,0.001,0.0008,-0.0005,0.0015,0.0019,0.0022,0.0036,0.0028,0.0033,-0.0022,-0.0022,-0.0022,0,0,0.0143,0.0145,0.0147,0.0153,0.0149,0.0166,0.0136,0.0142,0.0153,0.0101,0.01,0.0067,0.0038,0.0033,0.0027,0.002,0.0029,0.0023,0.0026,0.0039,0.0029,0.0034,0.0039,-0.0022,-0.0022,-0.0022,0,0,0.0168,0.0162,0.0181,0.0183,0.0187,0.0183,0.0187,0.0178,0.0171,0.0166,0.013,0.0106,0.0082,0.0065,0.0054,0.0069,0.0048,0.006,0.0104,0.0096,0.0101,0.0105,0.0091,0.0093,0.0066,0.0066,0.0066,0,0.0177,0.02,0.0186,0.0209,0.0222,0.0196,0.0227,0.0218,0.0199,0.02,0.0175,0.0136,0.0104,0.0104,0.0102,0.0081,0.0068,0.009,0.0103,0.0107,0.011,0.0095,0.0097,0.0069,0.0068,0.0068,0.0068,0,0.0216,0.0236,0.025,0.0272,0.0283,0.0302,0.03,0.0304,0.029,0.0273,0.0263,0.0212,0.0191,0.0174,0.0141,0.0148,0.0128,0.0107,0.0096,0.012,0.0101,0.0102,0.0073,0.0072,0.0071,0.007,0,0,0.0236,0.0273,0.0277,0.0308,0.032,0.0341,0.0366,0.0383,0.0406,0.0366,0.0387,0.0333,0.0291,0.0275,0.0227,0.0214,0.0212,0.0172,0.0171,0.0168,0.019,0.0165,0.0163,0.0193,0.0193,0.0194,0.0166,0,0.0274,0.0336,0.0342,0.0404,0.0442,0.044,0.047,0.0478,0.047,0.0478,0.0422,0.041,0.0334,0.0323,0.0295,0.0236,0.0219,0.0221,0.0159,0.0158,0.014,0.0165,0.0182,0.0158,0.0167,0.0168,0.0168,0,0.0313,0.0354,0.0423,0.0492,0.0509,0.054,0.0598,0.062,0.0617,0.061,0.058,0.0522,0.0482,0.0419,0.0337,0.0341,0.0272,0.0223,0.022,0.0181,0.0135,0.0135,0.0159,0.0169,0.0169,0.0169,0.0169,0,0.0342,0.0415,0.0477,0.0495,0.0561,0.0601,0.0636,0.0657,0.0696,0.0688,0.0708,0.0633,0.0613,0.0518,0.0385,0.0367,0.03,0.0264,0.0179,0.0176,0.0171,0.0167,0.0219,0.0219,0.0219,0.0219,0.0219,0,0.0381,0.0432,0.0499,0.053,0.0621,0.065,0.0738,0.0757,0.0798,0.0853,0.0771,0.0791,0.0638,0.0564,0.0434,0.0311,0.0335,0.0198,0.0173,0.019,0.0187,0.0181,0.0177,0.0218,0.0218,0.0218,0.0218,0,0.0403,0.0438,0.052,0.0603,0.0635,0.0702,0.0811,0.0873,0.0901,0.0974,0.0975,0.0919,0.0828,0.0665,0.0519,0.039,0.0265,0.0213,0.0236,0.0214,0.0133,0.0133,0.0129,0.0128,0.0127,0.0126,0.0126,0,0.0426,0.0466,0.0567,0.0626,0.0667,0.0771,0.0846,0.0913,0.0989,0.1055,0.1097,0.1029,0.0981,0.0752,0.053,0.0315,0.0274,0.018,0.0147,0.0152,0.0127,0.0128,0.0128,0.016,0.0159,0.0159,0.0159,0,0.0473,0.0497,0.0561,0.0675,0.0766,0.0877,0.0991,0.1065,0.1154,0.1208,0.1257,0.1219,0.1022,0.0804,0.0513,0.0362,0.0213,0.0169,0.0185,0.0176,0.0178,0.0155,0.0155,0.0157,0.0157,0.0157,0.0158,0.0158,0.051,0.056,0.0638,0.0747,0.085,0.0972,0.1061,0.1175,0.1285,0.136,0.1343,0.1282,0.1074,0.0688,0.0459,0.0211,0.0221,0.0111,0.0113,0.0115,0.012,0.012,0.0089,0.0089,0.0089,0.0088,0.0088,0,0.0566,0.0618,0.0714,0.0842,0.0942,0.0991,0.1155,0.1226,0.1343,0.1386,0.1398,0.1163,0.0947,0.0704,0.0352,0.0142,0.0124,0.0058,0.009,0.0093,0.0096,0.0101,0.0064,0.0063,0.0062,0.0062,0,0,0.0603,0.0691,0.0735,0.0899,0.098,0.1115,0.12,0.1285,0.1345,0.1354,0.1314,0.1257,0.0993,0.0727,0.0461,0.0264,0.0216,0.0213,0.0254,0.0326,0.0331,0.0148,0.0163,0,0,0,0,0]}],[{"header":{"parameterUnit":"m.s-1","parameterCategory":2,"la1":30.2991,"la2":30.254,"lo1":-89.0895,"lo2":-89.0444,"dy":0.0017,"dx":0.0017,"nx":28,"ny":28,"refTime":"2024-02-20T09:00:00:Z","depth":"4","parameterNumber":2,"parameterNumberName":"U-component_of_CURRENTS"},"data":[0,0,0,0,0,0,0,0,0,0,0,0,0,0,0,0,0,0,0,0,0,0,0,0,0,0,0,0,0,0,0,0,0,0,0,0,0,0,0,0,0,0,0,0,0,0,0,0,0,0,0,0,0,0,0,0,0,0,0.1061,0.1062,0,0.1116,0.1116,0.1117,0.1165,0.1165,0.1166,0.1166,0.124,0.1241,0.1243,0,0,0,0,0,0,0,0,0,0,0,0,0,0.1046,0.1045,0.1061,0.1062,0.1062,0.1115,0.1116,0.1117,0.1165,0.1165,0.1166,0.1166,0.1239,0.1241,0.1243,0,0,0,0,0,0,0,0,0,0,0,0,0,0.1072,0.1045,0.1061,0.1092,0.1095,0.1115,0.1116,0.1117,0.1165,0.1165,0.1166,0.1167,0.1239,0.1241,0.1243,0.1242,0,0,0.125,0.1251,0,0,0,0,0,0,0,0,0.107,0.1072,0.1087,0.109,0.1094,0.1134,0.1138,0.116,0.1164,0.1139,0.1166,0.1167,0.1205,0.121,0.1219,0.1245,0.1248,0.125,0.1251,0.1252,0.1253,0,0,0,0,0,0,0,0.1068,0.1071,0.1083,0.1088,0.1092,0.112,0.1124,0.1142,0.1168,0.1141,0.1145,0.115,0.1207,0.1217,0.1221,0.1249,0.125,0.1252,0.1253,0.1254,0.1363,0.1364,0,0,0,0,0,0,0.1057,0.1068,0.1082,0.1085,0.1083,0.1119,0.1124,0.1121,0.1167,0.1175,0.1149,0.1152,0.1213,0.1219,0.1224,0.1287,0.1252,0.1254,0.1256,0.1361,0.1363,0.1365,0,0,0,0,0,0,0.1056,0.1057,0.1079,0.1078,0.1083,0.1118,0.1114,0.1121,0.116,0.1173,0.1181,0.1184,0.1214,0.1221,0.127,0.1288,0.1255,0.1257,0.1359,0.1362,0.1364,0.1374,0,0,0,0,0,0,0.1055,0.1056,0.1067,0.1077,0.1082,0.1108,0.1114,0.1122,0.116,0.1165,0.1205,0.1211,0.1215,0.1266,0.1272,0.1291,0.1259,0.1357,0.136,0.1363,0.1372,0.1376,0.138,0,0,0,0,0,0.1055,0.1058,0.1067,0.107,0.109,0.1109,0.1115,0.1143,0.1161,0.1181,0.1213,0.1211,0.1289,0.1269,0.1275,0.1295,0.1356,0.136,0.1363,0.137,0.1375,0.138,0,0,0,0,0,0,0.1055,0.1063,0.1074,0.108,0.1102,0.1117,0.1138,0.1159,0.12,0.1211,0.123,0.1238,0.1289,0.1296,0.1274,0.1338,0.1322,0.1327,0.1326,0.1331,0.1335,0.1327,0.1261,0,0,0,0,0,0.1058,0.1067,0.108,0.1089,0.11,0.1126,0.1145,0.1161,0.119,0.121,0.1238,0.127,0.1302,0.1321,0.1347,0.138,0.1399,0.1399,0.1403,0.1407,0.1407,0.1468,0.1478,0.1376,0.1376,0.1376,0,0,0.1058,0.1067,0.1071,0.1092,0.111,0.1122,0.114,0.1168,0.1185,0.121,0.1255,0.129,0.1318,0.1356,0.1378,0.1366,0.1446,0.1411,0.1414,0.1412,0.1473,0.1483,0.1491,0.1378,0.1378,0.1378,0,0,0.1056,0.1073,0.1079,0.1097,0.1127,0.1139,0.1154,0.1184,0.121,0.1253,0.1278,0.1327,0.1372,0.1393,0.141,0.1456,0.147,0.1471,0.148,0.154,0.1549,0.1557,0.1586,0.1597,0.1468,0.1468,0.1468,0,0.106,0.1064,0.1087,0.1098,0.1113,0.1148,0.1159,0.1184,0.123,0.126,0.1271,0.1369,0.1386,0.144,0.1451,0.1464,0.1496,0.1453,0.1545,0.1553,0.1561,0.1589,0.1601,0.1469,0.1469,0.1469,0.1469,0,0.1059,0.1069,0.1075,0.1097,0.1119,0.1135,0.1164,0.1203,0.1242,0.1273,0.1352,0.139,0.1453,0.1464,0.1467,0.1534,0.1538,0.1546,0.1526,0.1571,0.1599,0.161,0.147,0.147,0.147,0.147,0,0,0.1048,0.1068,0.1076,0.1083,0.1121,0.1135,0.1172,0.1219,0.1262,0.1318,0.1381,0.1435,0.1481,0.1504,0.1529,0.1566,0.1635,0.1577,0.158,0.1595,0.176,0.1626,0.1626,0.1669,0.1671,0.1673,0.1754,0,0.1044,0.1054,0.1073,0.1089,0.1093,0.1138,0.1174,0.1226,0.1282,0.1351,0.1412,0.1483,0.1489,0.1535,0.1577,0.1638,0.1669,0.1612,0.1723,0.1726,0.1593,0.1635,0.1681,0.1762,0.1765,0.1767,0.1768,0,0.1039,0.1045,0.1057,0.1084,0.1096,0.1121,0.1197,0.1233,0.133,0.1385,0.1472,0.1527,0.1612,0.1602,0.1726,0.1698,0.1726,0.1753,0.1757,0.1635,0.1613,0.1712,0.1789,0.1787,0.1786,0.1784,0.1783,0,0.1018,0.1035,0.1046,0.1054,0.1094,0.1128,0.1167,0.1255,0.1304,0.142,0.1484,0.159,0.1666,0.1734,0.1798,0.178,0.1915,0.19,0.1797,0.1788,0.188,0.1871,0.1964,0.1964,0.1964,0.1964,0.1964,0,0.0996,0.1007,0.104,0.1045,0.108,0.1119,0.118,0.1246,0.1344,0.1411,0.1511,0.1582,0.1707,0.1794,0.183,0.1855,0.1954,0.18,0.1804,0.1881,0.1871,0.1887,0.1877,0.1967,0.1966,0.1966,0.1965,0,0.0963,0.0988,0.1001,0.1047,0.1069,0.11,0.1181,0.1223,0.1334,0.1427,0.1473,0.1613,0.1722,0.1815,0.1926,0.1886,0.1924,0.1898,0.1971,0.1977,0.1744,0.1734,0.1789,0.1785,0.1782,0.1779,0.1777,0,0.0935,0.0936,0.0997,0.1016,0.104,0.1087,0.1122,0.1219,0.1264,0.143,0.147,0.1608,0.1688,0.1751,0.1843,0.19,0.1872,0.1871,0.1792,0.173,0.1729,0.1724,0.1719,0.1771,0.177,0.177,0.1769,0,0.0872,0.0915,0.0933,0.0979,0.1017,0.104,0.1097,0.1123,0.1238,0.1352,0.1435,0.1493,0.1598,0.1675,0.1729,0.1763,0.1866,0.1835,0.1841,0.1767,0.1709,0.171,0.1709,0.1757,0.1759,0.176,0.176,0,0.0835,0.0842,0.0887,0.092,0.0966,0.0977,0.1011,0.1055,0.1114,0.1289,0.1312,0.1461,0.158,0.1604,0.1663,0.1681,0.1645,0.1582,0.1601,0.1615,0.1518,0.1417,0.1381,0,0,0,0,0,0.0783,0.079,0.0816,0.0847,0.0891,0.0922,0.0987,0.1022,0.1134,0.1159,0.123,0.1317,0.1393,0.1468,0.1453,0.1577,0.1649,0.155,0.1585,0.1692,0.1706,0.1607,0,0,0,0,0,0,0.0752,0.0778,0.0791,0.0778,0.0787,0.0821,0.0861,0.0933,0.0947,0.1076,0.113,0.1228,0.1329,0.1397,0.1429,0.1449,0.144,0.1637,0.1633,0.1684,0.1697,0.1708,0.1611,0,0,0,0,0]},{"header":{"parameterUnit":"m.s-1","parameterCategory":2,"la1":30.2991,"la2":30.254,"lo1":-89.0895,"lo2":-89.0444,"dy":0.0017,"dx":0.0017,"nx":28,"ny":28,"refTime":"2024-02-20T09:00:00:Z","depth":"4","parameterNumber":3,"parameterNumberName":"V-component_of_CURRENTS"},"data":[0,0,0,0,0,0,0,0,0,0,0,0,0,0,0,0,0,0,0,0,0,0,0,0,0,0,0,0,0,0,0,0,0,0,0,0,0,0,0,0,0,0,0,0,0,0,0,0,0,0,0,0,0,0,0,0,0,0,0.0189,0.0189,0,0.0179,0.0179,0.0179,0.0165,0.0165,0.0165,0.0164,0.0128,0.0127,0.0127,0,0,0,0,0,0,0,0,0,0,0,0,0,0.0169,0.0169,0.0189,0.0189,0.0188,0.0179,0.0179,0.0179,0.0165,0.0165,0.0165,0.0164,0.0128,0.0127,0.0126,0,0,0,0,0,0,0,0,0,0,0,0,0,0.017,0.017,0.0189,0.018,0.0179,0.0179,0.0179,0.0179,0.0165,0.0165,0.0165,0.0164,0.0129,0.0127,0.0126,0.0127,0,0,0.0123,0.0122,0,0,0,0,0,0,0,0,0.017,0.0171,0.0182,0.0181,0.018,0.0173,0.0158,0.016,0.0165,0.0171,0.0164,0.0164,0.0141,0.0138,0.0138,0.0125,0.0124,0.0123,0.0122,0.0122,0.0121,0,0,0,0,0,0,0,0.017,0.0171,0.0185,0.0182,0.0181,0.0168,0.0168,0.0159,0.0158,0.017,0.0169,0.0168,0.014,0.0139,0.0137,0.0123,0.0123,0.0122,0.0121,0.0121,0.0111,0.0111,0,0,0,0,0,0,0.0173,0.0172,0.0185,0.0185,0.0174,0.0169,0.0169,0.0176,0.0158,0.0155,0.0168,0.0167,0.0141,0.0138,0.0136,0.0147,0.0122,0.0121,0.012,0.0111,0.0111,0.0112,0,0,0,0,0,0,0.0173,0.0175,0.0186,0.0177,0.0177,0.017,0.0177,0.0176,0.0178,0.0157,0.0154,0.0172,0.0141,0.0137,0.0127,0.0145,0.012,0.0119,0.011,0.0111,0.0111,0.0163,0,0,0,0,0,0,0.0172,0.0175,0.0181,0.0178,0.0178,0.0191,0.0177,0.0176,0.0177,0.0176,0.0159,0.0155,0.014,0.0129,0.0126,0.0143,0.0118,0.011,0.0111,0.0111,0.0161,0.0165,0.0169,0,0,0,0,0,0.0172,0.0184,0.0181,0.0183,0.0187,0.0192,0.0191,0.0183,0.0178,0.0183,0.0167,0.0156,0.0132,0.0128,0.0125,0.0142,0.0109,0.011,0.0111,0.0159,0.0164,0.0169,0,0,0,0,0,0,0.0181,0.0184,0.018,0.0194,0.0194,0.0189,0.0194,0.0188,0.0181,0.018,0.0158,0.0153,0.0152,0.0138,0.0134,0.0141,0.012,0.0121,0.0158,0.0163,0.0167,0.0177,0.0117,0,0,0,0,0,0.0185,0.0195,0.0194,0.0205,0.0207,0.0201,0.0202,0.0199,0.0192,0.0189,0.0175,0.0161,0.0154,0.015,0.0139,0.0141,0.0116,0.015,0.0155,0.0158,0.0164,0.0138,0.014,0.0115,0.0115,0.0115,0,0,0.0191,0.0194,0.0199,0.0207,0.0207,0.0218,0.0201,0.0209,0.022,0.0186,0.0191,0.0174,0.0157,0.016,0.0159,0.015,0.0152,0.016,0.0163,0.0167,0.0139,0.0141,0.0144,0.0115,0.0115,0.0115,0,0,0.0209,0.0212,0.0226,0.023,0.0234,0.0233,0.0238,0.0236,0.0236,0.0238,0.0218,0.0211,0.0197,0.019,0.0185,0.0205,0.0173,0.0203,0.0235,0.021,0.0212,0.0213,0.0181,0.0179,0.0207,0.0207,0.0207,0,0.0214,0.0235,0.023,0.0244,0.0254,0.0243,0.0263,0.0263,0.0257,0.0262,0.0247,0.0232,0.0215,0.0223,0.0229,0.0217,0.0191,0.0219,0.0216,0.0217,0.0217,0.0184,0.0181,0.0209,0.0209,0.0209,0.0209,0,0.0241,0.0259,0.0269,0.0285,0.0294,0.031,0.0312,0.0319,0.0316,0.0312,0.0316,0.0289,0.0282,0.0277,0.0259,0.0262,0.0238,0.0223,0.0205,0.0223,0.0186,0.0183,0.0213,0.0212,0.0211,0.0211,0,0,0.025,0.0282,0.0286,0.0307,0.032,0.0334,0.0354,0.0371,0.0389,0.0374,0.0389,0.0373,0.0355,0.0347,0.0323,0.0301,0.028,0.0267,0.0264,0.0238,0.0215,0.0199,0.0192,0.0261,0.0261,0.0261,0.0187,0,0.0274,0.0315,0.0323,0.0366,0.039,0.0395,0.0417,0.0429,0.043,0.0438,0.0415,0.0416,0.0384,0.0381,0.0355,0.03,0.0273,0.0301,0.0199,0.0196,0.0181,0.0189,0.026,0.0184,0.0183,0.0182,0.0182,0,0.0296,0.0324,0.0371,0.042,0.0431,0.0457,0.0496,0.0515,0.052,0.0519,0.0511,0.0482,0.0458,0.0422,0.0341,0.0358,0.0293,0.0244,0.024,0.0205,0.0173,0.0161,0.0174,0.0175,0.0176,0.0176,0.0176,0,0.0309,0.0359,0.0403,0.0418,0.0465,0.0496,0.0524,0.0543,0.0569,0.057,0.0579,0.0538,0.0521,0.044,0.034,0.0338,0.0236,0.0221,0.0143,0.014,0.0154,0.0153,0.0158,0.0158,0.0158,0.0158,0.0159,0,0.0331,0.0367,0.0419,0.0444,0.0507,0.0529,0.0589,0.0607,0.0633,0.0664,0.0624,0.0625,0.0523,0.045,0.0353,0.0237,0.0245,0.015,0.0123,0.0177,0.0179,0.0151,0.0151,0.0156,0.0156,0.0157,0.0157,0,0.034,0.0369,0.0427,0.049,0.0516,0.0564,0.0639,0.0677,0.0696,0.0732,0.0734,0.0688,0.0597,0.0481,0.0344,0.0261,0.0148,0.0101,0.0163,0.0141,0.0064,0.0067,0.0014,0.0013,0.0012,0.0011,0.001,0,0.0349,0.0379,0.046,0.0501,0.0537,0.0609,0.0659,0.0707,0.0746,0.0767,0.0783,0.0713,0.0662,0.0462,0.0335,0.0148,0.0118,0.0053,0.0063,0.0071,0.005,0.0056,0.006,0.0009,0.0008,0.0008,0.0008,0,0.0369,0.0397,0.0445,0.0527,0.0593,0.0667,0.0741,0.0772,0.082,0.0836,0.0817,0.072,0.0615,0.0461,0.0313,0.0179,0.0095,0.0043,0.0044,0.0052,0.0064,0.0046,0.0052,0.0005,0.0005,0.0005,0.0006,0,0.0384,0.042,0.0481,0.0556,0.0635,0.0708,0.0745,0.0793,0.0832,0.0852,0.0839,0.0733,0.0673,0.0476,0.0341,0.0208,0.0173,0.0124,0.012,0.0122,0.0174,0.0206,0.017,0,0,0,0,0,0.0399,0.0442,0.0507,0.059,0.0664,0.0714,0.0794,0.0823,0.0863,0.0854,0.0851,0.0752,0.0563,0.0484,0.0348,0.0313,0.0143,0.0147,0.0083,-0.0014,-0.001,0.0031,0,0,0,0,0,0,0.041,0.047,0.0505,0.0602,0.0659,0.0748,0.08,0.0826,0.0822,0.0836,0.0739,0.0705,0.0522,0.0638,0.0341,0.0303,0.024,0.0066,0.0063,-0.0016,-0.0013,-0.0009,0.0034,0,0,0,0,0]}]]